OPS 8068

operational
NORAD ID: 1580 Int'l Des: 1965-072 Owner: AFSSD Country: US
LEORETROGRADESSO

About OPS 8068

Description loading...

Live Position

Loading 3D Globe...

Upcoming Passes

Altitude History

Altitude vs Time

uPlot chart will show altitude changes over time

Two-Line Element Set

1 1580U 65072A 25312.77001935 .00000391 00000-0 13037-3 0 9999
2 1580 98.3923 111.7264 0228990 337.2850 21.8324 14.29443679101528
Epoch: Nov 8, 2025 • Age: 34 hours

Current Status

Altitude 727.4 km
Velocity 7.53 km/s
Sub-Earth Point 38.12°N, 6.89°W
Type other

Large Constellations

Loading constellations...